ON7LDS-13 Weather Reports


time (UTC)temp
C
wind
direction
speed
KPH
gust
KPH
rain 1hr
cm
rain 24hr
cm
rain mn
cm
humidity
%
barometer
mb
20260507120542 16 0.0 0.0 0.00 0.00 0.00 58 1020.3
20260507115640 16 0.0 0.0 0.00 0.00 0.00 59 1020.4
20260507114540 16 0.0 0.0 0.00 0.00 0.00 59 1020.4
20260507113540 16 0.0 0.0 0.00 0.00 0.00 59 1020.4
20260507112540 16 0.0 0.0 0.00 0.00 0.00 58 1020.5
20260507111541 16 0.0 0.0 0.00 0.00 0.00 58 1020.5
20260507110540 16 0.0 0.0 0.00 0.00 0.00 58 1020.5
20260507105542 16 0.0 0.0 0.00 0.00 0.00 58 1020.5
20260507104540 16 0.0 0.0 0.00 0.00 0.00 57 1020.5
20260507103540 15 0.0 0.0 0.00 0.00 0.00 58 1020.6
20260507102540 15 0.0 0.0 0.00 0.00 0.00 58 1020.6
20260507101539 15 0.0 0.0 0.00 0.00 0.00 57 1020.6
20260507100609 14 0.0 0.0 0.00 0.00 0.00 58 1020.5
20260507095539 15 0.0 0.0 0.00 0.00 0.00 58 1020.5
20260507094539 14 0.0 0.0 0.00 0.00 0.00 57 1020.4
20260507093541 14 0.0 0.0 0.00 0.00 0.00 57 1020.5
20260507092539 14 0.0 0.0 0.00 0.00 0.00 53 1020.4
20260507091541 13 0.0 0.0 0.00 0.00 0.00 54 1020.3
20260507090631 13 0.0 0.0 0.00 0.00 0.00 55 1020.4
20260507085541 13 0.0 0.0 0.00 0.00 0.00 56 1020.2
20260507084540 13 0.0 0.0 0.00 0.00 0.00 50 1020.2
20260507083539 13 0.0 0.0 0.00 0.00 0.00 49 1020.2
20260507082539 13 0.0 0.0 0.00 0.00 0.00 45 1020.1
20260507081540 12 0.0 0.0 0.00 0.00 0.00 41 1020.1
20260507080600 12 0.0 0.0 0.00 0.00 0.00 38 1020.1
20260507075539 12 0.0 0.0 0.00 0.00 0.00 40 1020.1
20260507074608 12 0.0 0.0 0.00 0.00 0.00 37 1020.0
20260507073538 12 0.0 0.0 0.00 0.00 0.00 33 1019.9
20260507072538 12 0.0 0.0 0.00 0.00 0.00 28 1019.9
20260507071538 11 0.0 0.0 0.00 0.00 0.00 19 1019.9
20260507070538 11 0.0 0.0 0.00 0.00 0.00 11 1019.9
20260507065538 10 0.0 0.0 0.00 0.00 0.00 1 1019.8
20260507064538 10 0.0 0.0 0.00 0.00 0.00 1 1019.8
20260507063608 10 0.0 0.0 0.00 0.00 0.00 1 1019.8
20260507062608 10 0.0 0.0 0.00 0.00 0.00 1 1019.6
20260507061608 9 0.0 0.0 0.00 0.00 0.00 1 1019.5
20260507060538 9 0.0 0.0 0.00 0.00 0.00 1 1019.4
20260507055537 9 0.0 0.0 0.00 0.00 0.00 1 1019.3
20260507054539 8 0.0 0.0 0.00 0.00 0.00 1 1019.2
20260507053558 8 0.0 0.0 0.00 0.00 0.00 1 1019.2
20260507052638 8 0.0 0.0 0.00 0.00 0.00 1 1019.1
20260507051539 8 0.0 0.0 0.00 0.00 0.00 1 1019.0
20260507050637 8 0.0 0.0 0.00 0.00 0.00 1 1018.9
20260507045627 8 0.0 0.0 0.00 0.00 0.00 1 1018.8
20260507044537 8 0.0 0.0 0.00 0.00 0.00 1 1018.7
20260507043607 8 0.0 0.0 0.00 0.00 0.00 1 1018.6
20260507042619 8 0.0 0.0 0.00 0.00 0.00 1 1018.6
20260507041538 8 0.0 0.0 0.00 0.00 0.00 1 1018.4
20260507040557 8 0.0 0.0 0.00 0.00 0.00 1 1018.3
20260507035606 8 0.0 0.0 0.00 0.00 0.00 1 1018.3
20260507034556 8 0.0 0.0 0.00 0.00 0.00 1 1018.2
20260507033536 8 0.0 0.0 0.00 0.00 0.00 1 1018.2
20260507032628 8 0.0 0.0 0.00 0.00 0.00 1 1018.2
20260507031606 8 0.0 0.0 0.00 0.00 0.00 1 1018.2
20260507030638 8 0.0 0.0 0.00 0.00 0.00 1 1018.1
20260507025538 8 0.0 0.0 0.00 0.00 0.00 1 1018.1
20260507024538 8 0.0 0.0 0.00 0.00 0.00 1 1018.1
20260507023606 8 0.0 0.0 0.00 0.00 0.00 1 1018.1
20260507022536 8 0.0 0.0 0.00 0.00 0.00 1 1018.0
20260507021626 8 0.0 0.0 0.00 0.00 0.00 1 1018.0
20260507020536 8 0.0 0.0 0.00 0.00 0.00 1 1017.9
20260507015536 8 0.0 0.0 0.00 0.00 0.00 1 1017.8
20260507014536 8 0.0 0.0 0.00 0.00 0.00 1 1017.7
20260507013537 8 0.0 0.0 0.00 0.00 0.00 1 1017.7
20260507012605 8 0.0 0.0 0.00 0.00 0.00 1 1017.7
20260507011606 9 0.0 0.0 0.00 0.00 0.00 1 1017.7
20260507010627 9 0.0 0.0 0.00 0.00 0.00 1 1017.6
20260507005556 9 0.0 0.0 0.00 0.00 0.00 1 1017.7
20260507004637 9 0.0 0.0 0.00 0.00 0.00 1 1017.6
20260507003535 9 0.0 0.0 0.00 0.00 0.00 1 1017.6
20260507002557 9 0.0 0.0 0.00 0.00 0.00 1 1017.6
20260507001605 9 0.0 0.0 0.00 0.00 0.00 3 1017.5
20260507000625 9 0.0 0.0 0.00 0.00 0.00 5 1017.5
20260506235555 9 0.0 0.0 0.00 0.00 0.00 6 1017.4
20260506234606 9 0.0 0.0 0.00 0.00 0.00 7 1017.4
20260506233534 9 0.0 0.0 0.00 0.00 0.00 8 1017.3
20260506232634 9 0.0 0.0 0.00 0.00 0.00 10 1017.3
20260506231535 9 0.0 0.0 0.00 0.00 0.00 11 1017.3
20260506230648 9 0.0 0.0 0.00 0.00 0.00 12 1017.1
20260506225638 10 0.0 0.0 0.00 0.00 0.00 12 1017.1
20260506224534 10 0.0 0.0 0.00 0.00 0.00 14 1017.1
20260506223534 10 0.0 0.0 0.00 0.00 0.00 14 1017.1
20260506222554 10 0.0 0.0 0.00 0.00 0.00 14 1017.0
20260506221534 10 0.0 0.0 0.00 0.00 0.00 14 1016.9
20260506220536 10 0.0 0.0 0.00 0.00 0.00 15 1016.9
20260506214634 10 0.0 0.0 0.00 0.00 0.00 16 1016.8
20260506213534 10 0.0 0.0 0.00 0.00 0.00 18 1016.8
20260506212534 10 0.0 0.0 0.00 0.00 0.00 20 1016.7
20260506211534 10 0.0 0.0 0.00 0.00 0.00 18 1016.6
20260506210645 10 0.0 0.0 0.00 0.00 0.00 16 1016.6
20260506205603 10 0.0 0.0 0.00 0.00 0.00 18 1016.5
20260506204603 10 0.0 0.0 0.00 0.00 0.00 19 1016.5
20260506203655 10 0.0 0.0 0.00 0.00 0.00 20 1016.4
20260506202603 10 0.0 0.0 0.00 0.00 0.00 20 1016.4
20260506201535 10 0.0 0.0 0.00 0.00 0.00 21 1016.3
20260506200533 10 0.0 0.0 0.00 0.00 0.00 22 1016.2
20260506195534 10 0.0 0.0 0.00 0.00 0.00 22 1016.1
20260506194535 11 0.0 0.0 0.00 0.00 0.00 23 1016.1
20260506193533 11 0.0 0.0 0.00 0.00 0.00 24 1016.0
20260506192533 11 0.0 0.0 0.00 0.00 0.00 27 1015.9
20260506191535 11 0.0 0.0 0.00 0.00 0.00 26 1015.8
20260506190534 11 0.0 0.0 0.00 0.00 0.00 31 1015.7
20260506185533 11 0.0 0.0 0.00 0.00 0.00 34 1015.6
20260506184602 11 0.0 0.0 0.00 0.00 0.00 37 1015.5
20260506183643 12 0.0 0.0 0.00 0.00 0.00 40 1015.4
20260506182632 12 0.0 0.0 0.00 0.00 0.00 42 1015.3
20260506181532 12 0.0 0.0 0.00 0.00 0.00 44 1015.1
20260506180532 12 0.0 0.0 0.00 0.00 0.00 46 1015.0
20260506175532 12 0.0 0.0 0.00 0.00 0.00 48 1014.9
20260506174554 12 0.0 0.0 0.00 0.00 0.00 50 1014.8
20260506173555 12 0.0 0.0 0.00 0.00 0.00 51 1014.7
20260506172602 13 0.0 0.0 0.00 0.00 0.00 52 1014.6
20260506171532 13 0.0 0.0 0.00 0.00 0.00 53 1014.5
20260506170602 13 0.0 0.0 0.00 0.00 0.00 56 1014.4
20260506165533 13 0.0 0.0 0.00 0.00 0.00 56 1014.3
20260506164553 14 0.0 0.0 0.00 0.00 0.00 57 1014.1
20260506163551 14 0.0 0.0 0.00 0.00 0.00 57 1013.9
20260506162532 15 0.0 0.0 0.00 0.00 0.00 57 1013.8
20260506161653 15 0.0 0.0 0.00 0.00 0.00 57 1013.8
20260506160633 15 0.0 0.0 0.00 0.00 0.00 57 1013.8
20260506155613 15 0.0 0.0 0.00 0.00 0.00 57 1013.8
20260506154533 15 0.0 0.0 0.00 0.00 0.00 57 1013.8
20260506153531 15 0.0 0.0 0.00 0.00 0.00 57 1013.8
20260506152531 15 0.0 0.0 0.00 0.00 0.00 56 1013.7
20260506151531 15 0.0 0.0 0.00 0.00 0.00 56 1013.7
20260506150531 15 0.0 0.0 0.00 0.00 0.00 56 1013.6
20260506145532 15 0.0 0.0 0.00 0.00 0.00 56 1013.5
20260506144601 15 0.0 0.0 0.00 0.00 0.00 57 1013.6
20260506143531 16 0.0 0.0 0.00 0.00 0.00 56 1013.6
20260506142532 16 0.0 0.0 0.00 0.00 0.00 56 1013.5
20260506141530 16 0.0 0.0 0.00 0.00 0.00 56 1013.5
20260506140652 16 0.0 0.0 0.00 0.00 0.00 56 1013.5
20260506135530 16 0.0 0.0 0.00 0.00 0.00 56 1013.5
20260506134530 16 0.0 0.0 0.00 0.00 0.00 56 1013.5
20260506133531 16 0.0 0.0 0.00 0.00 0.00 56 1013.5
20260506132550 16 0.0 0.0 0.00 0.00 0.00 54 1013.4
20260506131532 15 0.0 0.0 0.00 0.00 0.00 55 1013.4
20260506130530 15 0.0 0.0 0.00 0.00 0.00 54 1013.3
20260506125530 15 0.0 0.0 0.00 0.00 0.00 52 1013.3
20260506124559 15 0.0 0.0 0.00 0.00 0.00 48 1013.3
20260506123529 15 0.0 0.0 0.00 0.00 0.00 41 1013.3
20260506122600 15 0.0 0.0 0.00 0.00 0.00 28 1013.2
20260506121529 15 0.0 0.0 0.00 0.00 0.00 31 1013.1